Flag for U.S.A. Weather past 2 weeks in San Jose, California, U.S.A.

Now
55 °F

Low clouds.


Feels Like: 54 °F
Forecast: 54 / 76 °F
Wind: 5 mph from Northwest

Location: San Jose International Airport

Current Time: May 29, 2015 at 3:53:45 AM

Latest Report: May 29, 2015 at 2:53 AM


Visibility: 10 mi

Pressure: 30.00 "Hg

Humidity: 87%

Dew point: 51 °F

Location of San JoseLocation

Historic Weather in San Jose — Graph

°F

San Jose temperature yesterday

Maximum temperature yesterday: 68 °F (at 2:53 PM)
Minimum temperature yesterday: 56 °F (at 4:53 AM)
Average temperature yesterday: 60 °F

Past Weeks' High & Low Weather Summary

 TemperatureHumidityPressure
High70 °F (May 27, 12:53 PM)100% (May 14, 4:53 PM)30.13 "Hg (May 14, 4:53 PM)
Low50 °F (May 16, 4:53 AM)44% (May 14, 11:53 AM)29.80 "Hg (May 14, 5:53 PM)
Average59 °F68%29.99 "Hg
* Reported May 14 1:53 AM — May 29 1:53 AM, San Jose, Weather by CustomWeather, © 2015

Note: Actual official high and low records may vary slightly from our data, if they occured in-between our weather recording intervals... More about our weather records

Advertising

San Jose weather history for previous 24 hours

 ConditionsComfort  
Time TempWeatherWind HumidityBarometerVisibility
1:53 AM
Fri, May 29
56 °FLow clouds.No wind84%30.00 "Hg10 mi
12:53 AM56 °FLow clouds.6 mph84%30.00 "Hg10 mi
11:53 PM
Thu, May 28
56 °FLow clouds.No wind84%30.01 "Hg10 mi
10:53 PM56 °FLow clouds.6 mph84%30.02 "Hg10 mi
9:53 PM56 °FPassing clouds.10 mph84%30.01 "Hg10 mi
8:53 PM56 °FScattered clouds.9 mph84%30.01 "Hg10 mi
7:53 PM60 °FScattered clouds.14 mph75%29.98 "Hg10 mi
6:53 PM63 °FScattered clouds.15 mph68%29.97 "Hg10 mi
5:53 PM66 °FScattered clouds.14 mph61%29.97 "Hg10 mi
4:53 PM67 °FBroken clouds.13 mph61%29.98 "Hg10 mi
3:53 PM67 °FPartly sunny.10 mph59%29.99 "Hg10 mi
2:53 PM68 °FBroken clouds.10 mph59%30.01 "Hg10 mi
1:53 PM66 °FScattered clouds.10 mph63%30.02 "Hg10 mi
12:53 PM66 °FBroken clouds.13 mph61%30.02 "Hg10 mi
11:53 AM65 °FBroken clouds.8 mph61%30.03 "Hg10 mi
10:53 AM64 °FBroken clouds.6 mph61%30.04 "Hg10 mi
9:53 AM62 °FBroken clouds.3 mph65%30.04 "Hg10 mi
8:53 AM59 °FBroken clouds.3 mph72%30.06 "Hg10 mi
7:53 AM56 °FMostly cloudy.No wind81%30.04 "Hg10 mi
6:53 AM56 °FMostly cloudy.5 mph77%30.03 "Hg10 mi
5:53 AM56 °FMostly cloudy.6 mph81%30.03 "Hg10 mi
4:53 AM56 °FOvercast.8 mph81%30.02 "Hg10 mi
3:53 AM57 °FOvercast.8 mph78%30.01 "Hg10 mi
Weather by CustomWeather, © 2015

See weather overviewHow to use our weather pages